Frying Pan Shoals, NC (41013)

Conditions for Die Saturni

Daily
Weekly
Monthly
Marine Data Graph

Current Weather/Wave Observations

Air Temperature: 84° F
Humidity: 84
Wind direction (W Dir): Magis Auster quam Zephyrus (205 - 214 Degrees)
Wind Speed (W Spd): 13.6 kts (15.7 mph)
Wind Gust (W Spd): 17.5 kts (20.1 mph)
Atmospheric Pressure (AP): 29.94 in

Updated: 02:10 PM EDT die 19o August, anno 2017

Marine & Boating Location Search

Enter a coastal zip code for marine weather.

Current Wave Detail Observations

Water Depth: 79 ft
Wave Height: 3.84 ft
Spectral Peak Period: 5.9 sec
Average Wave Period: 4.5 sec
Sampling Interval: 0.6 sec
Wave Record: 2400 sec

Updated: 02:00 PM EDT die 19o August, anno 2017

General Information

Location: 33.436 North -77.743 West
Buoy Type: 2.3-meter foam discus buoy
Buoy Hull: 2.3D01
Payload: SCOOP payload
Owned by: NDBC
Windspeed: Measured by obtained from anemometer
Sea Surface: Measured by Intake
Note: Right whales are active off NC from November to April. Speed restrictions of 10 knots apply to vessels 65 feet or greater in specific areas and times along the mid-Atlantic coast. To learn more about right whales and rules protecting them, go to: http://www.nmfs.noaa.gov/pr/shipstrike/

Weather and Wave Data

Time Temp Humidity Wind Dominant Wave Wind Wave Wave Swell Pressure
  Air
(°F)
Water
(°F)
  Dir Speed
(kts)
Speed
(mph)
Period
(sec)
Height
(ft)
Range
(ft)
Period
(sec)
Height
(ft)
Range
(ft)
Period
(sec)
Height
(ft)
Range
(ft)
Atmo.
(in)
Tend.
(in)
20:00 84 85 90 Magis Auster quam Zephyrus 17.5 20.1 - - - - - - 29.92 +0.01
20:20 84
-
89 Magis Auster quam Zephyrus 17.5 20.1 - - - - - - 29.92 -
20:30 84 84 88 Magis Auster quam Zephyrus 19.4 22.4 - - - - - - 29.93 -
20:40 84 85 89 Magis Auster quam Zephyrus 17.5 20.1 - - - - - - 29.92 -
20:50 84 85 88 Magis Auster quam Zephyrus 17.5 20.1 5 3.28 exactly 3.3 5 3.28 2.46 - 4.10 8 1.64 0.82 - 2.46 29.92 -
21:10 85 85 85 Magis Auster quam Zephyrus 19.4 22.4 - - - - - - 29.93 -
21:20 85 84 84 Magis Auster quam Zephyrus 19.4 22.4 - - - - - - 29.93 -
21:30 85 84 84 Magis Auster quam Zephyrus 17.5 20.1 - - - - - - 29.93 -
21:40 85 84 84 Magis Auster quam Zephyrus 19.4 22.4 - - - - - - 29.94 -
21:50 85 84 84 Magis Auster quam Zephyrus 17.5 20.1 5 3.61 exactly 3.6 5 3.28 2.46 - 4.10 8 1.64 0.82 - 2.46 29.94 -
22:00 85 84 83 Magis Auster quam Zephyrus 19.4 22.4 - - - - - - 29.94 +0.02
22:10 85 84 83 Magis Auster quam Zephyrus 19.4 22.4 - - - - - - 29.94 -
22:20 85 84 83 Magis Auster quam Zephyrus 19.4 22.4 - - - - - - 29.94 -
22:30 85 84 84 Magis Auster quam Zephyrus 19.4 22.4 - - - - - - 29.94 -
22:40 85 84 83 Magis Auster quam Zephyrus 19.4 22.4 - - - - - - 29.94 -
22:50 85 84 83 Inter Austrum et Zephyrum 17.5 20.1 5 4.27 exactly 4.3 5 3.28 2.46 - 4.10 - - - 29.94 -
23:00 85 84 83 Magis Auster quam Zephyrus 17.5 20.1 - - - - - - 29.94 +0.01
23:10 85 84 83 Magis Auster quam Zephyrus 17.5 20.1 - - - - - - 29.94 -
23:20 85 84 84 Magis Auster quam Zephyrus 17.5 20.1 - - - - - - 29.94 -
23:30 85 84 83 Magis Auster quam Zephyrus 17.5 20.1 - - - - - - 29.94 -
23:40 85 84 84 Inter Austrum et Zephyrum 17.5 20.1 - - - - - - 29.94 -
00:10 85 84 84 Inter Austrum et Zephyrum 17.5 20.1 - - - - - - 29.94 -
00:20 85 84 83 Inter Austrum et Zephyrum 17.5 20.1 - - - - - - 29.95 -
00:30 85 84 83 Inter Austrum et Zephyrum 17.5 20.1 - - - - - - 29.95 -
00:40 84 84 86 Inter Austrum et Zephyrum 17.5 20.1 - - - - - - 29.95 -
00:50 84 84 86 Inter Austrum et Zephyrum 17.5 20.1 5 3.94 exactly 3.9 5 3.28 2.46 - 4.10 8 1.64 0.82 - 2.46 29.95 -
01:00 84 84 86 Inter Austrum et Zephyrum 17.5 20.1 - - - - - - 29.95 +0.01
01:10 84 84 87 Inter Austrum et Zephyrum 17.5 20.1 - - - - - - 29.96 -
01:20 84 84 87 Inter Austrum et Zephyrum 15.6 17.9 - - - - - - 29.96 -
01:30 84 84 88 Inter Austrum et Zephyrum 17.5 20.1 - - - - - - 29.96 -
01:40 84 84 88 Inter Austrum et Zephyrum 15.6 17.9 - - - - - - 29.96 -
01:50 84 84 88 Inter Austrum et Zephyrum 15.6 17.9 5 4.59 exactly 4.6 5 4.92 4.10 - 5.74 - - - 29.95 -
02:00 84 84 87 Inter Austrum et Zephyrum 17.5 20.1 - - - - - - 29.95 +0.01
02:10 84 84 88 Inter Austrum et Zephyrum 15.6 17.9 - - - - - - 29.95 -
02:20 84 84 87 Inter Austrum et Zephyrum 15.6 17.9 - - - - - - 29.95 -
02:30 84 84 87 Inter Austrum et Zephyrum 15.6 17.9 - - - - - - 29.95 -
02:40 84 84 88 Inter Austrum et Zephyrum 15.6 17.9 - - - - - - 29.94 -
02:50 84 84 88 Inter Austrum et Zephyrum 15.6 17.9 6 4.27 exactly 4.3 6 4.92 4.10 - 5.74 - - - 29.94 -
03:10 84 84 87 Inter Austrum et Zephyrum 15.6 17.9 - - - - - - 29.94 -
03:30 84 84 87 Inter Austrum et Zephyrum 15.6 17.9 - - - - - - 29.94 -
03:40 84 84 86 Inter Austrum et Zephyrum 15.6 17.9 - - - - - - 29.94 -
03:50 84 84 86 Inter Austrum et Zephyrum 17.5 20.1 5 3.94 exactly 3.9 5 3.28 2.46 - 4.10 8 1.64 0.82 - 2.46 29.94 -
04:10 84 84 85 Inter Austrum et Zephyrum 17.5 20.1 - - - - - - 29.93 -
04:20 84 84 85 Inter Austrum et Zephyrum 17.5 20.1 - - - - - - 29.93 -
04:30 84 84 85 Inter Austrum et Zephyrum 17.5 20.1 - - - - - - 29.93 -
04:40 84 84 85 Inter Austrum et Zephyrum 17.5 20.1 - - - - - - 29.93 -
04:50 84 84 85 Inter Austrum et Zephyrum 15.6 17.9 5 4.27 exactly 4.3 5 4.92 4.10 - 5.74 - - - 29.93 -
05:00 84 84 84 Inter Austrum et Zephyrum 17.5 20.1 - - - - - - 29.93 -0.02
05:10 84 84 84 Inter Austrum et Zephyrum 17.5 20.1 - - - - - - 29.93 -
05:20 84 84 85 Inter Austrum et Zephyrum 15.6 17.9 - - - - - - 29.93 -
05:30 84 84 84 Inter Austrum et Zephyrum 15.6 17.9 - - - - - - 29.93 -
05:40 84 84 83 Inter Austrum et Zephyrum 15.6 17.9 - - - - - - 29.93 -
06:20 84 84 82 Inter Austrum et Zephyrum 17.5 20.1 - - - - - - 29.93 -
06:30 84 84 82 Inter Austrum et Zephyrum 17.5 20.1 - - - - - - 29.93 -
06:50 84 84 81 Inter Austrum et Zephyrum 17.5 20.1 6 3.94 exactly 3.9 6 3.28 2.46 - 4.10 9 1.64 0.82 - 2.46 29.94 -
07:10 84 84 82 Inter Austrum et Zephyrum 17.5 20.1 - - - - - - 29.94 -
07:20 84 84 82 Inter Austrum et Zephyrum 15.6 17.9 - - - - - - 29.94 -
07:30 84 84 82 Inter Austrum et Zephyrum 15.6 17.9 - - - - - - 29.94 -
07:40 84 84 83 Inter Austrum et Zephyrum 13.6 15.7 - - - - - - 29.94 -
07:50 84 84 83 Inter Austrum et Zephyrum 13.6 15.7 6 3.94 exactly 3.9 6 3.28 2.46 - 4.10 8 1.64 0.82 - 2.46 29.94 -
08:00 84 84 83 Inter Austrum et Zephyrum 13.6 15.7 - - - - - - 29.94 +0.01
08:10 84 84 81 Inter Austrum et Zephyrum 13.6 15.7 - - - - - - 29.94 -
08:20 84 84 81 Inter Austrum et Zephyrum 13.6 15.7 - - - - - - 29.94 -
08:30 84 84 82 Inter Austrum et Zephyrum 13.6 15.7 - - - - - - 29.94 -
08:40 84 84 81 Inter Austrum et Zephyrum 13.6 15.7 - - - - - - 29.95 -
08:50 84 84 81 Inter Austrum et Zephyrum 13.6 15.7 6 3.94 exactly 3.9 6 3.28 2.46 - 4.10 8 1.64 0.82 - 2.46 29.94 -
09:00 84 84 81 Inter Austrum et Zephyrum 13.6 15.7 - - - - - - 29.95 +0.02
09:10 84 84 81 Inter Austrum et Zephyrum 13.6 15.7 - - - - - - 29.95 -
09:20 84 84 82 Inter Austrum et Zephyrum 13.6 15.7 - - - - - - 29.95 -
09:30 84 84 82 Inter Austrum et Zephyrum 11.7 13.4 - - - - - - 29.95 -
09:40 84 84 82 Inter Austrum et Zephyrum 11.7 13.4 - - - - - - 29.96 -
09:50 84 84 83 Inter Austrum et Zephyrum 11.7 13.4 6 3.94 exactly 3.9 6 3.28 2.46 - 4.10 8 1.64 0.82 - 2.46 29.96 -
10:10 84 84 82 Inter Austrum et Zephyrum 13.6 15.7 - - - - - - 29.96 -
10:20 84 84 82 Inter Austrum et Zephyrum 13.6 15.7 - - - - - - 29.96 -
10:30 84 84 81 Inter Austrum et Zephyrum 13.6 15.7 - - - - - - 29.96 -
10:40 84 84 82 Inter Austrum et Zephyrum 13.6 15.7 - - - - - - 29.97 -
10:50 84 84 82 Inter Austrum et Zephyrum 13.6 15.7 6 3.94 exactly 3.9 6 3.28 2.46 - 4.10 8 1.64 0.82 - 2.46 29.97 -
11:10 84 84 83 Inter Austrum et Zephyrum 13.6 15.7 - - - - - - 29.97 -
11:30 84 84 83 Inter Austrum et Zephyrum 13.6 15.7 - - - - - - 29.97 -
11:50 84 84 83 Inter Austrum et Zephyrum 11.7 13.4 6 3.94 exactly 3.9 6 3.28 2.46 - 4.10 12 1.64 0.82 - 2.46 29.96 -
12:10 84 84 83 Inter Austrum et Zephyrum 11.7 13.4 - - - - - - 29.96 -
12:20 84 84 83 Inter Austrum et Zephyrum 11.7 13.4 - - - - - - 29.96 -
12:40 84 84 83 Inter Austrum et Zephyrum 11.7 13.4 - - - - - - 29.96 -
12:50 84 84 83 Magis Auster quam Zephyrus 11.7 13.4 6 3.94 exactly 3.9 6 3.28 2.46 - 4.10 8 1.64 0.82 - 2.46 29.96 -
13:10 84 84 84 Magis Auster quam Zephyrus 11.7 13.4 - - - - - - 29.96 -
13:20 84 84 83 Magis Auster quam Zephyrus 11.7 13.4 - - - - - - 29.96 -
13:40 84 84 83 Magis Auster quam Zephyrus 11.7 13.4 - - - - - - 29.95 -
14:10 84 84 84 Magis Auster quam Zephyrus 13.6 15.7 - - - - - - 29.94 -

Detailed Wave Spectra

Time Water Depth Wave Height Spectral Peak Period Average Wave Period Sampling Interval Wave Record
21:00 79 ft 3.31 ft 4.5 sec 4.0 sec 0.6 sec 2400 sec
00:00 79 ft 4.56 ft 4.8 sec 4.3 sec 0.6 sec 2400 sec
03:00 79 ft 4.27 ft 5.6 sec 4.4 sec 0.6 sec 2400 sec
04:00 79 ft 3.94 ft 5.3 sec 4.4 sec 0.6 sec 2400 sec
06:00 79 ft 4.17 ft 5.6 sec 4.4 sec 0.6 sec 2400 sec
07:00 79 ft 4.10 ft 5.6 sec 4.4 sec 0.6 sec 2400 sec
10:00 79 ft 3.94 ft 5.6 sec 4.6 sec 0.6 sec 2400 sec
11:00 79 ft 3.90 ft 5.6 sec 4.8 sec 0.6 sec 2400 sec
12:00 79 ft 4.07 ft 5.9 sec 4.8 sec 0.6 sec 2400 sec
13:00 79 ft 3.84 ft 5.6 sec 4.8 sec 0.6 sec 2400 sec
14:00 79 ft 3.84 ft 5.9 sec 4.5 sec 0.6 sec 2400 sec